Weather History for Three Rivers, MI

Change the Weather History Date:

Friday, July 5, 2013

  Actual Average Record
Temperature  
Mean Temperature 71 °F -  
Max Temperature 81 °F 82 °F 100 °F (2012)
Min Temperature 61 °F 59 °F 44 °F (1963)
Cooling Degree Days 6    
Growing Degree Days 21 (Base 50)    
Moisture  
Dew Point 63 °F    
Average Humidity 75    
Maximum Humidity 95    
Minimum Humidity 52    
Precipitation  
Precipitation 0.00 in - - ()
Sea Level Pressure  
Sea Level Pressure 30.10 in    
Wind  
Wind Speed 1 mph (South)    
Max Wind Speed 6 mph    
Max Gust Speed -    
Visibility 7 miles    
Events Fog , Rain    
Averages and records for this station are not official NWS values.
T = Trace of Precipitation, MM = Missing Value Source: NWS Daily Summary

Daily Weather History Graph

Daily Weather History Graph

Search for Another Location

Airport:

Trip Planner

Search our weather history database for the weather conditions in past years. The results will help you decide how hot, cold, wet, or windy it might be!

Date:

Astronomy

Jul. 05, 2013 Rise Set
Actual Time 6:13 AM EDT 9:20 PM EDT
Civil Twilight 5:39 AM EDT 9:54 PM EDT
Nautical Twilight 4:55 AM EDT 10:38 PM EDT
Astronomical Twilight 4:03 AM EDT 11:29 PM EDT
Moon 4:12 AM EDT (7/5) 7:14 PM EDT (7/5)
Length of Visible Light 16h 15m
Length of Day
15h 07m
Waning Crescent, 6% of the Moon is Illuminated
Jul 5
Waning Crescent
Jul 8
New
Jul 15
First Quarter
Jul 22
Full
Jul 29
Last Quarter

Hourly Weather History & Observations

Time (EDT) Temp. Heat Index Dew Point Humidity Pressure Visibility Wind Dir Wind Speed Gust Speed Precip Events Conditions
12:14 AM 64.6 °F - 61.5 °F 90% 30.11 in 5.0 mi Calm Calm - N/A   Clear
12:34 AM 64.8 °F - 62.1 °F 91% 30.10 in 5.0 mi Calm Calm - N/A   Scattered Clouds
12:54 AM 65.5 °F - 63.1 °F 92% 30.10 in 4.0 mi Calm Calm - N/A Rain Light Rain
1:14 AM 65.3 °F - 63.0 °F 92% 30.10 in 5.0 mi Calm Calm - N/A Rain Light Rain
1:35 AM 65.5 °F - 63.1 °F 92% 30.10 in 2.5 mi Calm Calm - N/A   Scattered Clouds
1:54 AM 65.3 °F - 63.1 °F 93% 30.10 in 4.0 mi Calm Calm - N/A   Scattered Clouds
2:14 AM 64.8 °F - 62.8 °F 93% 30.10 in 3.0 mi Calm Calm - N/A   Clear
2:35 AM 64.8 °F - 62.6 °F 93% 30.10 in 3.0 mi Calm Calm - N/A   Clear
2:54 AM 64.9 °F - 62.8 °F 93% 30.10 in 3.0 mi Calm Calm - N/A   Scattered Clouds
3:14 AM 64.9 °F - 62.8 °F 93% 30.10 in 2.5 mi Calm Calm - N/A   Mostly Cloudy
3:35 AM 64.4 °F - 62.6 °F 94% 30.09 in 2.5 mi Calm Calm - N/A   Mostly Cloudy
3:54 AM 64.9 °F - 62.8 °F 93% 30.09 in 3.0 mi Calm Calm - N/A   Scattered Clouds
4:14 AM 64.4 °F - 62.6 °F 94% 30.09 in 3.0 mi Calm Calm - N/A   Clear
4:35 AM 63.9 °F - 62.1 °F 94% 30.08 in 2.5 mi Calm Calm - N/A   Clear
4:54 AM 63.1 °F - 61.0 °F 93% 30.09 in 2.0 mi Calm Calm - N/A   Clear
5:15 AM 62.6 °F - 60.8 °F 94% 30.10 in 1.8 mi Calm Calm - N/A   Mist
5:35 AM 62.1 °F - 60.3 °F 94% 30.10 in 1.5 mi Calm Calm - N/A   Scattered Clouds
5:54 AM 62.4 °F - 60.6 °F 94% 30.10 in 2.5 mi Calm Calm - N/A   Clear
6:15 AM 62.2 °F - 60.6 °F 94% 30.09 in 0.2 mi Calm Calm - N/A Fog Fog
6:34 AM 61.7 °F - 60.3 °F 95% 30.10 in 1.2 mi Calm Calm - N/A   Mist
6:54 AM 62.2 °F - 60.8 °F 95% 30.10 in 1.2 mi Calm Calm - N/A   Mist
7:15 AM 62.6 °F - 60.8 °F 94% 30.11 in 1.0 mi Calm Calm - N/A   Mist
7:34 AM 63.0 °F - 61.3 °F 94% 30.11 in 1.5 mi Calm Calm - N/A   Mostly Cloudy
7:54 AM 63.9 °F - 62.1 °F 94% 30.11 in 1.5 mi Calm Calm - N/A   Overcast
8:15 AM 65.7 °F - 64.0 °F 94% 30.11 in 2.0 mi Calm Calm - N/A   Overcast
8:34 AM 67.5 °F - 65.3 °F 93% 30.12 in 4.0 mi Calm Calm - N/A   Overcast
8:54 AM 69.1 °F - 64.8 °F 86% 30.12 in 5.0 mi Calm Calm - N/A   Overcast
9:15 AM 69.8 °F - 64.2 °F 82% 30.13 in 5.0 mi Calm Calm - N/A   Haze
9:34 AM 72.0 °F - 62.8 °F 73% 30.13 in 7.0 mi Calm Calm - N/A   Overcast
9:55 AM 73.6 °F - 62.1 °F 67% 30.14 in 10.0 mi Calm Calm - N/A   Overcast
10:15 AM 74.5 °F - 61.5 °F 64% 30.14 in 10.0 mi NW 4.6 mph - N/A   Overcast
10:34 AM 75.0 °F - 60.8 °F 61% 30.14 in 10.0 mi NW 5.8 mph - N/A   Mostly Cloudy
10:55 AM 75.0 °F - 60.1 °F 60% 30.13 in 10.0 mi Calm Calm - N/A   Mostly Cloudy
11:15 AM 74.8 °F - 60.1 °F 60% 30.14 in 10.0 mi Calm Calm - N/A   Scattered Clouds
11:34 AM 77.0 °F - 58.8 °F 53% 30.13 in 10.0 mi Calm Calm - N/A   Scattered Clouds
11:55 AM 76.8 °F - 59.4 °F 55% 30.13 in 10.0 mi South 3.5 mph - N/A   Scattered Clouds
12:14 PM 77.2 °F - 60.1 °F 55% 30.13 in 10.0 mi Calm Calm - N/A   Clear
12:34 PM 78.1 °F - 60.6 °F 55% 30.12 in 10.0 mi Calm Calm - N/A   Clear
12:55 PM 79.0 °F - 61.5 °F 55% 30.13 in 10.0 mi South 4.6 mph - N/A   Clear
1:14 PM 78.3 °F - 61.5 °F 56% 30.12 in 10.0 mi South 3.5 mph - N/A   Scattered Clouds
1:34 PM 79.3 °F - 62.4 °F 56% 30.13 in 10.0 mi WSW 4.6 mph - N/A   Mostly Cloudy
1:55 PM 79.3 °F - 60.4 °F 52% 30.12 in 10.0 mi South 3.5 mph - N/A   Scattered Clouds
2:14 PM 79.7 °F - 61.3 °F 53% 30.12 in 10.0 mi South 5.8 mph - N/A   Scattered Clouds
2:34 PM 79.7 °F - 60.6 °F 52% 30.12 in 10.0 mi SSE 4.6 mph - N/A   Mostly Cloudy
2:55 PM 79.9 °F - 62.2 °F 55% 30.10 in 10.0 mi Calm Calm - N/A   Mostly Cloudy
3:14 PM 80.6 °F 81.7 °F 61.9 °F 53% 30.10 in 10.0 mi SE 4.6 mph - N/A   Scattered Clouds
3:35 PM 80.4 °F 81.7 °F 63.1 °F 55% 30.10 in 10.0 mi Calm Calm - N/A   Clear
3:55 PM 80.4 °F 81.5 °F 61.9 °F 53% 30.10 in 10.0 mi South 3.5 mph - N/A   Scattered Clouds
4:14 PM 81.1 °F 82.1 °F 62.1 °F 52% 30.09 in 10.0 mi South 3.5 mph - N/A   Scattered Clouds
4:35 PM 79.7 °F - 62.4 °F 55% 30.08 in 10.0 mi Calm Calm - N/A   Mostly Cloudy
4:54 PM 80.1 °F 81.5 °F 63.0 °F 56% 30.08 in 10.0 mi Calm Calm - N/A   Mostly Cloudy
5:15 PM 78.4 °F - 64.9 °F 63% 30.08 in 10.0 mi South 4.6 mph - N/A   Overcast
5:35 PM 77.0 °F - 65.7 °F 68% 30.09 in 10.0 mi South 5.8 mph - N/A   Overcast
5:54 PM 78.6 °F - 66.0 °F 65% 30.08 in 10.0 mi South 3.5 mph - N/A   Mostly Cloudy
6:15 PM 80.1 °F 82.0 °F 65.5 °F 61% 30.08 in 10.0 mi South 5.8 mph - N/A   Scattered Clouds
6:34 PM 79.3 °F - 65.5 °F 62% 30.07 in 10.0 mi South 3.5 mph - N/A   Scattered Clouds
6:54 PM 79.3 °F - 65.8 °F 63% 30.06 in 10.0 mi SW 3.5 mph - N/A   Clear
7:15 PM 78.8 °F - 65.1 °F 63% 30.06 in 10.0 mi NNE 3.5 mph - N/A   Clear
7:34 PM 78.3 °F - 65.7 °F 65% 30.06 in 10.0 mi SSE 3.5 mph - N/A   Clear
7:54 PM 78.3 °F - 66.4 °F 67% 30.06 in 10.0 mi Calm Calm - N/A   Clear
8:15 PM 78.3 °F - 66.0 °F 66% 30.07 in 10.0 mi Calm Calm - N/A   Clear
8:34 PM 78.1 °F - 66.0 °F 66% 30.07 in 10.0 mi Calm Calm - N/A   Clear
8:54 PM 77.9 °F - 66.2 °F 67% 30.07 in 10.0 mi Calm Calm - N/A   Mostly Cloudy
9:15 PM 77.2 °F - 66.2 °F 69% 30.08 in 10.0 mi SSE 3.5 mph - N/A   Overcast
9:34 PM 76.3 °F - 66.0 °F 70% 30.08 in 10.0 mi Calm Calm - N/A   Mostly Cloudy
9:55 PM 73.4 °F - 66.2 °F 78% 30.08 in 10.0 mi SSE 3.5 mph - N/A   Clear
10:15 PM 73.2 °F - 66.2 °F 79% 30.08 in 10.0 mi Calm Calm - N/A   Clear
10:34 PM 72.7 °F - 66.2 °F 80% 30.09 in 10.0 mi Calm Calm - N/A   Clear
10:55 PM 72.5 °F - 66.4 °F 81% 30.10 in 10.0 mi Calm Calm - N/A   Clear
11:15 PM 71.8 °F - 66.4 °F 83% 30.10 in 10.0 mi Calm Calm - N/A   Clear
11:34 PM 71.4 °F - 66.4 °F 84% 30.10 in 10.0 mi Calm Calm - N/A   Clear
11:55 PM 70.7 °F - 66.0 °F 85% 30.10 in 10.0 mi Calm Calm - N/A   Clear